{"data":{"norad_id":69971,"intl_designator":"2026-157AE","name":"STARLINK-37922","alt_names":[],"object_type":"PAYLOAD","status":"ACTIVE","operator":null,"country":"US","launch_date":"2026-07-09","launch_site_code":"AFETR","launch_vehicle":null,"mission":null,"orbit_class":"UNKNOWN","rcs_meters":null,"size_class":null,"mass_kg":null,"dimensions":null,"purposes":["comms"],"wikipedia_slug":null,"has_3d_model":false,"image_url":null,"decayed_at":null,"tle_current":{"epoch":"2026-09-20T05:12:30.534048Z","epoch_age_seconds":42218,"freshness":"FRESH","line1":"1 69971U 26157AE  26263.21702007  .00024650  00000+0  73796-3 0  9992","line2":"2 69971  53.1590 334.7332 0001590  91.4106 268.7078 15.34413619 11331","mean_motion":15.34413619,"eccentricity":0.000159,"inclination_deg":53.159,"raan_deg":334.7332,"arg_perigee_deg":91.4106,"mean_anomaly_deg":268.7078,"bstar":0.00073796,"rev_number":1133,"period_min":93.84692511648,"perigee_km":461.57507480627,"apogee_km":463.75044913058,"semimajor_km":6840.7997619684,"source":"CELESTRAK","updated_at":"2026-09-20T09:00:44.304873Z"}}}